Location: Brabourne
(51.1333°N, 1.0000°E)
Time: 10:50:27
(UTC+00:00)

Cosmos 1825 Rocket - Pass Details

Date: 25 October 2021
Orbit: 603 x 631 km, 82.5° (Epoch: 26 November)

Event Time Altitude Azimuth Distance (km) Brightness Sun altitude
Rises 18:22:41 0° 353° (N) 2,878 7.1 -16.3°
Reaches altitude 10° 18:24:59 10° 359° (N) 1,966 6.2 -16.6°
Maximum altitude 18:29:12 48° 75° (ENE) 798 3.7 -17.3°
Enters shadow 18:31:18 26° 136° (SE) 1,197 4.6 -17.6°
